Voltar ao catálogo

STARLINK-36452

AtivoComunicaçõesVLEO
NORAD 67405·PAYLOAD·🇺🇸 United States

Lançado Jan 12, 2026 de Cape Canaveral Space Force Station

Loading…

Próximas Passagens (próximas 24 horas)

TLE

AtualizadoSource: CelesTrak SupGP

Época: Sep 15, 2026, 03:38 UTC

1 67405C 26005B   26258.15187500 -.00036655  00000+0 -13279-2 0  2583
2 67405  42.9991 247.6459 0001266 268.0784 191.0835 15.27591243    12

Acompanhe STARLINK-36452 em tempo real com AllMySat

Download on the App Store